Regional Weather Roundup
Issued by NWS

Home | Current Version | Previous Version | Text Only | Print | Product List | Glossary On
Versions: 1 2 3 4 5 6 7 8 9 10 11 12 13 14 15 16 17 18 19 20 21 22 23 24 25 26 27 28 29 30 31 32 33 34 35 36 37 38 39 40 41 42 43 44 45 46 47 48 49 50
000
ASHW40 PHFO 070010
RWRHI

WEATHER ROUNDUP FOR HAWAII
NATIONAL WEATHER SERVICE HONOLULU HI
200 PM HST FRI MAR 06 2015

THIS IS AN AUTOMATED REPORT THAT HAS NOT BEEN QUALITY CONTROLLED.

NOTE..."FAIR" INDICATES FEW OR NO CLOUDS BELOW 12,000 FEET WITH NO
SIGNIFICANT WEATHER AND/OR OBSTRUCTIONS TO VISIBILITY.

* - THESE SITES REPORT LIMITED FIELDS

HIZ001>004-070100-
KAUAI-NIIHAU-

CITY           SKY/WX    TMP DP  RH WIND       PRES   REMARKS
LIHUE APT      PTSUNNY   74  54  49 N23       29.97F
PORT ALLEN*      N/A     79 N/A N/A W15         N/A
POIPU*           N/A     75 N/A N/A NE6G17      N/A
PRINCEVILLE*     N/A     72 N/A N/A MISG        N/A
KOKOLE POINT*  NOT AVBL
MOLOAA DAIRY*  NOT AVBL
WAIMEA HTS*    NOT AVBL
PUU OPAE*      NOT AVBL
PUU LUA*       NOT AVBL
MAKAHA RIDGE*  NOT AVBL
$$

HIZ005>011-070100-
OAHU-

CITY           SKY/WX    TMP DP  RH WIND       PRES   REMARKS
HONOLULU       PTSUNNY   75  57  53 NE15G22   29.89F
KALAELOA       MOSUNNY   77  56  48 NE12G23   29.89F
KANEOHE MCB    MOSUNNY   76  60  57 N17       29.90F
WHEELER FIELD  FAIR      71  59  66 N14G23    29.91F
BELLOWS*       NOT AVBL
KAHUKU*        NOT AVBL
WHEELER*       NOT AVBL
WAIANAE HARBOR NOT AVBL
DILLINGHAM*      N/A     73  59  60 MISG        N/A
KAHUKU TRN*      N/A     64  52  63 NE9G23      N/A
KAWAILOA*        N/A     66  59  77 N8G22       N/A
KII*             N/A     72  59  64 N16G24      N/A
MAKUA RANGE*     N/A     72  57  60 E16G26      N/A
OAHU FOREST NW NOT AVBL
SCHOFIELD BRK*   N/A     61  50  67 MISG        N/A
SCHOFIELD S*   NOT AVBL
WAIANAE VLY*   NOT AVBL
KUAOKALA*      NOT AVBL
HONOULIUULI*   NOT AVBL
MOKUOLOE IS*   NOT AVBL
PALEHUA*       NOT AVBL
WAIAWA PHB*    NOT AVBL
$$

HIZ012>013-070100-
MOLOKAI-

CITY           SKY/WX    TMP DP  RH WIND       PRES   REMARKS
MOLOKAI AIRPT  PTSUNNY   72  59  63 N20G26    29.91F
KALAUPAPA      NOT AVBL
MAKAPULAPAI*   NOT AVBL
MOLOKAI 1*     NOT AVBL
PUU ALII*      NOT AVBL
$$

HIZ016-070100-
KAHOOLAWE-

CITY           SKY/WX    TMP DP  RH WIND       PRES   REMARKS
KAHOOLAWE*     NOT AVBL
HAKIOAWA*      NOT AVBL
HONOKANAIA*      N/A     75  61  60 N24G38    29.88F
KANELOA*         N/A     73  63  68 MISG      29.06
KEALIALALO*    NOT AVBL
LUA MAKIKA*    NOT AVBL
$$

HIZ014>015-070100-
LANAI-

CITY           SKY/WX    TMP DP  RH WIND       PRES   REMARKS
LANAI CITY     FAIR      71  60  68 NE24G36   29.90F
LANAI 1*       NOT AVBL
$$

HIZ017>028-070100-
MAUI-

CITY           SKY/WX    TMP DP  RH WIND       PRES   REMARKS
KAHULUI        CLOUDY    72  64  76 NE17G25   29.91F
KAPALUA-W MAUI LGT RAIN  72  64  78 NE17G25   29.91F
HANA AIRPORT   PTSUNNY   66  64  94 W6        29.94F
HANA*          NOT AVBL
HALEAKALA SUMM   N/A     48  34  57 SW8         N/A
MAALAEA BAY*   NOT AVBL
HALEAKALA*     NOT AVBL
KAUPO GAP*     NOT AVBL
KULA 1*          N/A     54  53  95 W5          N/A
$$

HIZ023>026-070100-
BIG ISLAND OF HAWAII COAST AND LOWER SLOPES-

CITY           SKY/WX    TMP DP  RH WIND       PRES   REMARKS
KAILUA KONA    PTSUNNY   80  64  58 N29G35    29.79F
HILO           LGT RAIN  69  67  93 NE15G25   29.88S VSB 1
HONOKAA*       NOT AVBL
KAWAIHAE MWT*  NOT AVBL
KAWAIHAE*      NOT AVBL
SOUTH POINT*   NOT AVBL
UPOLU AIRPORT* NOT AVBL
KAMUELA*       MOCLDY    64  59  82 N21       29.93F
HAKALAU*         N/A     54  52  93 N9G17       N/A
KALOKO-HONOKO* NOT AVBL
PALI 2*          N/A     72  57  60 N20G28      N/A
KEALAKOMO*       N/A    N/A N/A N/A N24G36      N/A
KAUPULEHU*     NOT AVBL
KAPAPALA*        N/A     77  64  63 CALM        N/A
LOWER KAHUKU*  NOT AVBL
PUHE CS*       NOT AVBL
PUHO CS*       NOT AVBL
PTA KEAMUKU*     N/A     61  55  82 NE2G18      N/A
WAIKOLOA*      NOT AVBL
$$

HIZ027>028-070100-
BIG ISLAND OF HAWAII INTERIOR AND SUMMMITS-

CITY           SKY/WX    TMP DP  RH WIND       PRES   REMARKS
BRADSHAW FIELD PTSUNNY   62  50  65 W8        30.11F
MK VISITOR CEN NOT AVBL
MAUNA KEA*       N/A     32 -17  11 NW60        N/A  WCI  13
MAUNA LOA*       N/A     45  36  70 MISG        N/A
MAUNA LOA 1*   NOT AVBL
PTA KIPUKA*      N/A     64  50  59 NW8G15      N/A
PTA RANGE 17*    N/A     63  48  59 W8G17       N/A
PTA WEST*        N/A     68  52  56 N12G22      N/A
NENE CABIN*    NOT AVBL
AHUMOA*        NOT AVBL
PTA PORTABLE*  NOT AVBL
PUU MALI*      NOT AVBL
$$

HIC003-070100-
NORTHWEST ISLANDS-

CITY           SKY/WX    TMP DP  RH WIND       PRES   REMARKS
MIDWAY ISLAND  PTSUNNY   66  55  68 E28G33    30.34F
MIDWAY NOS*    NOT AVBL
FRENCH FRIGATE NOT AVBL
$$

PHZ110>124-180-070100-
BUOY REPORTS

STATION/POSITION TIME  TEMP    WIND        PRES    WAVE   SWELL
                       AIR SEA DIR/SP/G            HT/PER HT/DIR
                 (UTC) (F)     (DEG/KT/KT) (MB)    (FT/S) (FT/D)
BUOY 51001       NOT AVBL
BUOY 51101       0000   66 73   20/ 23/ 29 1018.1F  10/ 9   7/ 40
BUOY 51100       0000   68 74   20/ 19/ 23 1011.8F
BUOY 51003       2300   74 78   40/ 21/ 25 1012.7F  10/ 9
BUOY 51004       NOT AVBL
BARBERS PT BUOY  NOT AVBL
WAIMEA BAY BUOY  0000      76                N/A     9/ 9   3/350
KAILUA BAY BUOY  0000      75                N/A     8/ 8   3/ 20
LANAI BUOY       0000      76                N/A     3/12   2/260
BARBERS PT 2     0000      77                N/A     4/ 8   2/240
PAUWELA MAUI     0000      74                N/A     9/ 8   2/360
HILO             0000      77                N/A     8/ 9   3/ 10
KANEOHE BAY BUOY 0000      75                N/A     9/ 9   2/360
HANALEI KAUAI    NOT AVBL
KAHULUI HARBOR   0000   69 74   10/ 13/ 18 1012.8F
HONOLULU HARBOR  0000   75 76   50/  5/ 15 1012.2S
KILO NALU        NOT AVBL
HILO HARBOR      2300   69 76   10/ 17/ 21 1011.2F
MOKUOLOE         2300      75              1013.5F
NAWILIWILI       0000   71 78   10/ 22/ 27 1014.2S
WHOTS BUOY       NOT AVBL
BUOY 51028       NOT AVBL
$$

......................KEY........................................
  SKY/WX - SKY CONDITIONS/PRESENT WEATHER
  TMP    - TEMPERATURE IN FAHRENHEIT
  DWPT   - DEWPOINT IN FAHRENHEIT
  RH     - RELATIVE HUMIDITY IN PERCENT
  WIND   - DIRECTION AND SPEED /MPH FOR ISLANDS...KTS FOR BUOYS/
  PRES   - MEAN SEA LEVEL PRESSURE IN INCHES OF HG
  VSB    - VISIBILITY IN MILES
  HX     - HEAT INDEX
  WCI    - WIND CHILL INDEX
  VRB    - VARIABLE WIND DIRECTION
  N/A    - NOT AVAILABLE



USA.gov is the U.S. government's official web portal to all federal, state and local government web resources and services.